This demonstration page uses our WeatherBlox Daily Observations layout. Learn more.

Hourly Observations for January 24, 2021

Temp ( °F °C ) Dew Point ( °F °C ) Humidity (%) Winds ( mph kmh ) Pressure ( in mb ) Visibility ( mi km ) Precip ( " mm )
12:53 am 00:53 Clear 28 -2.2 14 -10 56 56 SSE 9 15 30.26 1025 10 16.0934 0 0
1:53 am 01:53 Cloudy 29 -1.7 15 -9.4 56 56 SE 10 17 30.23 1024 10 16.0934 0 0
2:53 am 02:53 Cloudy 30 -1.1 15 -9.4 54 54 SSE 8 13 30.22 1024 10 16.0934 0 0
3:53 am 03:53 Cloudy 30 -1.1 14 -10 51 51 SE 8 13 30.21 1023 10 16.0934 0 0
4:53 am 04:53 Cloudy 30 -1.1 14 -10 51 51 SE 12 19 30.19 1023 10 16.0934 0 0
5:53 am 05:53 Cloudy 30 -1.1 14 -10 51 51 SE 12 19 30.17 1022 10 16.0934 0 0
6:53 am 06:53 Cloudy 31 -0.6 14 -10 49 49 SE 10 17 30.16 1022 10 16.0934 0 0
7:53 am 07:53 Cloudy 31 -0.6 15 -9.4 52 52 SSE 10 17 30.15 1021 10 16.0934 0 0
8:53 am 08:53 Cloudy 32 0 14 -10 47 47 SSE 13 20 30.12 1020 10 16.0934 0 0
9:53 am 09:53 Cloudy 33 0.6 14 -10 45 45 S 15 24 30.12 1020 10 16.0934 0 0
10:21 am 10:21 Cloudy 31 -0.6 21 -6.1 67 67 S 15 24 30.16 1021 7 11.26538 0 0
10:53 am 10:53 Cloudy with Light Snow 30 -1.1 23 -5 75 75 SSE 12 19 30.12 1020 1.75 2.816345 0.001 0.001
11:07 am 11:07 Cloudy with Light Snow 30 -1.1 24 -4.4 79 79 S 9 15 30.16 1021 3 4.82802 0.001 0.001
11:50 am 11:50 Cloudy with Light Snow 30 -1 25 -4 80 80 S 10 17 30.14 1021 8 12.87472 0.001 0.001
11:53 am 11:53 Cloudy with Light Snow 31 -0.6 24 -4.4 76 76 S 9 15 30.1 1019 8 12.87472 0.001 0.001
11:55 am 11:55 Cloudy 31 -0.6 24 -4.4 76 76 S 8 13 30.13 1020 9 14.48406 0.001 0.001
12:09 pm 12:09 Cloudy with Light Snow 31 -0.6 24 -4.4 76 76 S 7 11 30.13 1020 7 11.26538 0.001 0.001
12:23 pm 12:23 Cloudy with Light Snow 31 -0.6 25 -3.9 79 79 SSE 9 15 30.12 1020 6 9.65604 0.001 0.001
12:51 pm 12:51 Cloudy 32 0 25 -4 75 75 S 8 13 30.12 1020 7 11.26538 0.001 0.001
12:53 pm 12:53 Cloudy 32 0 25 -3.9 75 75 S 6 9 30.09 1019 8 12.87472 0.001 0.001
1:13 pm 13:13 Cloudy with Haze 32 0 26 -3.3 79 79 S 7 11 30.1 1019 4 6.43736 0 0
1:24 pm 13:24 Cloudy with Haze 32 0 27 -2.8 82 82 S 6 9 30.09 1019 2.5 4.02335 0 0
1:53 pm 13:53 Cloudy with Haze 32 0 27 -2.8 82 82 SSW 6 9 30.06 1018 3 4.82802 0 0
2:53 pm 14:53 Cloudy with Mist and Fog 32 0 28 -2.2 85 85 SW 5 7 30.05 1018 6 9.65604 0 0
3:53 pm 15:53 Cloudy with Haze 33 0.6 28 -2.2 82 82 SW 3 6 30.04 1017 4 6.43736 0 0
4:53 pm 16:53 Cloudy 33 0.6 28 -2.2 82 82 W 3 6 30.04 1017 7 11.26538 0 0
5:53 pm 17:53 Cloudy 33 0.6 28 -2.2 82 82 WSW 3 6 30.05 1018 8 12.87472 0 0
6:53 pm 18:53 Cloudy 33 0.6 28 -2.2 82 82 W 3 6 30.07 1018 7 11.26538 0 0
7:53 pm 19:53 Cloudy 33 0.6 28 -2.2 82 82 WNW 5 7 30.08 1019 7 11.26538 0 0
8:28 pm 20:28 Cloudy with Haze 33 0.6 28 -2.2 82 82 NW 6 9 30.12 1020 6 9.65604 0 0
8:53 pm 20:53 Cloudy with Haze 33 0.6 28 -2.2 82 82 NW 5 7 30.08 1019 4 6.43736 0 0
9:08 pm 21:08 Cloudy with Mist and Fog 33 0.6 29 -1.7 85 85 NW 6 9 30.12 1020 2 3.21868 0 0
9:42 pm 21:42 Cloudy with Haze 33 0.6 28 -2.2 82 82 NNW 6 9 30.12 1020 4 6.43736 0 0
9:53 pm 21:53 Cloudy with Mist and Fog 33 0.6 29 -1.7 85 85 NNW 5 7 30.08 1019 3 4.82802 0 0
10:17 pm 22:17 Cloudy with Haze 33 0.6 28 -2.2 82 82 N 5 7 30.11 1020 5 8.0467 0 0
10:53 pm 22:53 Cloudy with Haze 33 0.6 28 -2.2 82 82 N 5 7 30.07 1018 5 8.0467 0 0
11:53 pm 23:53 Cloudy 33 0.6 28 -2.2 82 82 NNW 6 9 30.09 1019 7 11.26538 0 0

Powered by AerisWeather